sat.trackr.live / text

‹ back to catalog

STARLINK-36307

NORAD 68306 · 2026-057N

PAYLOAD ACTIVE UNKNOWN

§ Identity

Operator
Country
US
Launch date
2026-03-20
Launch site
AFWTR
Launch vehicle
Mass (kg)
RCS (m²)

Purposes: comms

External: N2YO · Heavens-Above · Gunter

§ Orbital elements

Epoch: 2026-05-24T21:14:26.801952Z

Period
91.42 min
Inclination
97.2857°
Eccentricity
0.0000960
Mean motion
15.75180864 rev/d
Perigee alt
343.5 km
Apogee alt
344.8 km
Semi-major
6,722.3 km
B*
1.6324e-3
RAAN
271.1737°
Arg perigee
85.6579°
Mean anomaly
274.4796°
Rev number
1,028

§ Raw data

STARLINK-363071 68306U 26057N   26144.88503243  .00250528  00000+0  16324-2 0  99922 68306  97.2857 271.1737 0000960  85.6579 274.4796 15.75180864 10281

JSON: /api/v1/satellites/68306 · /tle

For live sub-satellite position, see the globe view (requires WebGL).

§ Visibility from observer

Set your observer location to see the next 7 days of passes ≥ 10°. The values pass through the URL so the page stays shareable.

No JS? Fill the form by hand. The geolocation button needs JavaScript.